FW1504 Weather Reports


time (UTC)temp
C
wind
direction
speed
KPH
gust
KPH
rain 1hr
cm
rain 24hr
cm
rain mn
cm
humidity
%
barometer
mb
20260509103019 14 111 0.0 0.0 0.00 1.04 0.00 94 1009.8
20260509101531 14 111 0.0 0.0 0.00 1.04 0.00 94 1010.1
20260509100023 14 111 0.0 0.0 0.00 1.04 0.00 94 1010.2
20260509094520 14 111 0.0 0.0 0.00 1.04 0.00 94 1010.2
20260509093018 15 111 0.0 0.0 0.00 1.04 0.00 94 1010.2
20260509091519 15 111 0.0 0.0 0.00 1.04 0.00 94 1010.1
20260509090015 15 111 0.0 0.0 0.00 1.04 0.00 94 1010.2
20260509084516 15 111 0.0 0.0 0.00 1.04 0.00 94 1009.9
20260509083015 15 111 0.0 0.0 0.00 1.04 0.00 94 1010.1
20260509081509 15 111 0.0 0.0 0.00 1.04 0.00 94 1010.4
20260509080008 15 111 0.0 0.0 0.00 1.04 0.00 94 1010.6
20260509074507 15 111 0.0 0.0 0.00 1.04 0.00 94 1010.6
20260509073009 15 111 0.0 0.0 0.00 1.04 0.00 94 1010.8
20260509071505 15 111 0.0 0.0 0.00 1.04 0.00 94 1010.7
20260509070005 15 111 0.0 0.0 0.00 1.04 0.00 94 1010.8
20260509064504 15 112 0.0 0.0 0.00 1.04 0.00 94 1011.0
20260509063003 16 115 0.0 0.0 0.00 1.04 0.00 94 1011.1
20260509061502 15 360 0.0 0.0 0.00 1.04 0.00 94 1011.3
20260509060002 15 360 0.0 0.0 0.00 1.04 0.00 94 1011.4
20260509054502 15 360 0.0 1.6 0.00 1.04 0.00 94 1011.4
20260509053003 16 360 0.0 0.0 0.00 1.04 0.00 94 1011.4
20260509051559 15 360 0.0 3.2 0.00 1.04 0.00 94 1010.8
20260509050105 15 360 0.0 3.2 0.00 1.04 1.04 93 1010.2
20260509044554 16 167 0.0 1.6 0.00 1.04 1.04 93 1009.9
20260509043058 16 167 0.0 1.6 0.00 1.04 1.04 93 1010.0
20260509041553 16 167 0.0 1.6 0.00 1.04 1.04 93 1010.1
20260509040052 16 167 0.0 1.6 0.00 1.04 1.04 93 1010.1
20260509034555 17 167 0.0 0.0 0.00 1.04 1.04 93 1010.0
20260509033054 17 167 0.0 0.0 0.00 1.04 1.04 93 1009.7
20260509031550 17 167 0.0 1.6 0.00 1.04 1.04 93 1009.7
20260509030050 17 167 0.0 1.6 0.00 1.04 1.04 93 1009.3
20260509024549 17 167 0.0 1.6 0.00 1.04 1.04 93 1009.2
20260509023049 17 167 0.0 0.0 0.00 1.04 1.04 93 1008.7
20260509021549 17 167 0.0 1.6 0.00 1.04 1.04 93 1008.3
20260509020047 17 167 0.0 0.0 0.00 1.04 1.04 93 1008.4
20260509014547 17 167 0.0 0.0 0.00 1.04 1.04 93 1008.6
20260509013053 17 167 0.0 0.0 0.00 1.04 1.04 92 1008.4
20260509011546 17 165 0.0 3.2 0.00 1.04 1.04 92 1007.6
20260509010045 17 165 0.0 3.2 0.03 1.04 1.04 92 1007.3
20260509004556 17 164 0.0 8.0 0.64 1.04 1.04 92 1007.0
20260509003045 17 176 1.6 6.4 0.99 1.04 1.04 91 1007.2
20260509001550 17 201 0.0 3.2 1.04 1.04 1.04 90 1006.7
20260509000045 17 211 0.0 1.6 1.02 1.02 1.02 88 1007.4
20260508234543 17 30 0.0 12.9 0.41 0.41 0.41 86 1008.1
20260508233039 20 325 4.8 17.7 0.05 0.05 0.05 74 1007.4
20260508231538 26 360 3.2 14.5 0.00 0.00 0.00 56 1005.3
20260508230038 27 360 4.8 12.9 0.00 0.00 0.00 55 1005.6
20260508224546 27 360 3.2 6.4 0.00 0.00 0.00 54 1005.4
20260508223044 28 165 1.6 11.3 0.00 0.00 0.00 54 1005.6
20260508221534 28 198 3.2 14.5 0.00 0.00 0.00 54 1005.8
20260508220031 28 164 3.2 11.3 0.00 0.00 0.00 53 1006.1
20260508214548 28 360 3.2 12.9 0.00 0.00 0.00 55 1006.5
20260508213023 28 175 4.8 11.3 0.00 0.00 0.00 55 1006.8
20260508211521 27 179 1.6 8.0 0.00 0.00 0.00 54 1007.0
20260508210019 27 168 3.2 8.0 0.00 0.00 0.00 56 1007.3
20260508204518 27 265 3.2 16.1 0.00 0.00 0.00 54 1007.5
20260508203018 27 169 3.2 9.7 0.00 0.00 0.00 55 1007.6
20260508201513 27 248 3.2 8.0 0.00 0.00 0.00 54 1007.9
20260508200019 27 171 4.8 12.9 0.00 0.00 0.00 54 1008.0
20260508194509 27 107 4.8 11.3 0.00 0.00 0.00 55 1008.1
20260508193006 27 171 4.8 11.3 0.00 0.00 0.00 55 1008.4
20260508191504 27 218 3.2 19.3 0.00 0.00 0.00 54 1008.6
20260508190005 27 190 4.8 12.9 0.00 0.00 0.00 54 1009.0
20260508184604 27 159 4.8 11.3 0.00 0.00 0.00 54 1009.1
20260508183114 26 165 4.8 19.3 0.00 0.00 0.00 55 1009.4
20260508181555 26 182 4.8 19.3 0.00 0.00 0.00 54 1009.6
20260508180153 25 170 6.4 11.3 0.00 0.00 0.00 53 1009.9
20260508174605 25 167 6.4 12.9 0.00 0.00 0.00 52 1010.2
20260508173048 25 209 3.2 12.9 0.00 0.00 0.00 52 1010.5
20260508171546 25 182 4.8 14.5 0.00 0.00 0.00 54 1010.7
20260508170046 25 170 4.8 16.1 0.00 0.00 0.00 55 1011.0
20260508164549 25 175 4.8 14.5 0.00 0.00 0.00 57 1011.4
20260508163040 24 360 4.8 16.1 0.00 0.00 0.00 57 1011.5
20260508161538 23 175 4.8 16.1 0.00 0.00 0.00 56 1011.7
20260508160036 23 192 4.8 12.9 0.00 0.00 0.00 59 1012.3
20260508154530 22 360 8.0 17.7 0.00 0.00 0.00 57 1012.4
20260508153032 22 174 4.8 16.1 0.00 0.00 0.00 57 1012.6
20260508151522 22 175 4.8 12.9 0.00 0.00 0.00 62 1012.7
20260508150017 21 170 3.2 12.9 0.00 0.00 0.00 63 1012.8
20260508144525 21 176 4.8 14.5 0.00 0.00 0.00 63 1013.1
20260508143013 20 170 4.8 16.1 0.00 0.00 0.00 65 1013.2
20260508141512 20 186 3.2 12.9 0.00 0.00 0.00 65 1013.4
20260508140016 19 178 3.2 8.0 0.00 0.00 0.00 67 1013.5
20260508134505 18 189 3.2 11.3 0.00 0.00 0.00 70 1013.5
20260508133057 17 360 4.8 9.7 0.00 0.00 0.00 72 1013.6
20260508131605 16 360 1.6 6.4 0.00 0.00 0.00 76 1013.6
20260508130049 14 360 0.0 3.2 0.00 0.00 0.00 82 1013.8
20260508124544 12 360 0.0 1.6 0.00 0.00 0.00 86 1013.6
20260508123042 12 178 0.0 1.6 0.00 0.00 0.00 86 1013.4
20260508121538 12 178 0.0 1.6 0.00 0.00 0.00 86 1013.4
20260508120043 11 178 0.0 1.6 0.00 0.00 0.00 86 1013.3
20260508114545 11 178 0.0 1.6 0.00 0.00 0.00 85 1013.2
20260508113031 11 173 0.0 1.6 0.00 0.00 0.00 85 1013.2
20260508111530 11 173 0.0 1.6 0.00 0.00 0.00 84 1013.1
20260508110032 12 173 0.0 1.6 0.00 0.00 0.00 83 1013.1
20260508104530 12 172 0.0 3.2 0.00 0.00 0.00 83 1013.1